Weather History for Pittsburg, KS

Change the Weather History Date:

Sunday, July 28, 2013

  Actual Average (KJLN) Record (KJLN)
Temperature  
Mean Temperature 66 °F 81 °F  
Max Temperature 70 °F 91 °F 104 °F (2011)
Min Temperature 63 °F 70 °F 56 °F (2005)
Degree Days  
Heating Degree Days 0 0  
Month to date heating degree days 0  
Since 1 June heating degree days 5  
Since 1 July heating degree days 0  
Cooling Degree Days 2 16  
Month to date cooling degree days 427  
Year to date cooling degree days 925  
Since 1 June cooling degree days 745  
Growing Degree Days 16 (Base 50)    
Moisture  
Dew Point 64 °F    
Average Humidity 92    
Maximum Humidity 100    
Minimum Humidity 69    
Precipitation  
Precipitation 0.03 in 0.11 in 1.43 in (2006)
Month to date precipitation 3.51  
Year to date precipitation 27.32  
Sea Level Pressure  
Sea Level Pressure 30.05 in    
Wind  
Wind Speed 1 mph (East)    
Max Wind Speed 7 mph    
Max Gust Speed -    
Visibility 10 miles    
Events      
T = Trace of Precipitation, MM = Missing Value Source: NWS Daily Summary

Daily Weather History Graph

Daily Weather History Graph

Search for Another Location

Airport:

Trip Planner

Search our weather history database for the weather conditions in past years. The results will help you decide how hot, cold, wet, or windy it might be!

Date:

Astronomy

Jul. 28, 2013 Rise Set
Actual Time 6:20 AM CDT 8:30 PM CDT
Civil Twilight 5:50 AM CDT 8:59 PM CDT
Nautical Twilight 5:14 AM CDT 9:35 PM CDT
Astronomical Twilight 4:36 AM CDT 10:13 PM CDT
Moon No Moon Rise 12:53 PM CDT
Length of Visible Light 15h 08m
Length of Day
14h 10m
Waning Gibbous, 60% of the Moon is Illuminated
Jul 28
Waning Gibbous
Jul 29
Last Quarter
Aug 6
New
Aug 14
First Quarter
Aug 20
Full

Hourly Weather History & Observations

Time (CDT) Temp. Dew Point Humidity Pressure Visibility Wind Dir Wind Speed Gust Speed Precip Events Conditions
12:15 AM 63.7 °F 61.0 °F 91% 30.02 in 10.0 mi Calm Calm - N/A   Clear
12:35 AM 63.7 °F 61.0 °F 91% 30.02 in 10.0 mi Calm Calm - N/A   Clear
12:55 AM 63.5 °F 61.7 °F 94% 30.02 in 10.0 mi Calm Calm - N/A   Scattered Clouds
1:15 AM 63.5 °F 63.5 °F 100% 30.03 in 10.0 mi North 3.5 mph - N/A   Scattered Clouds
1:35 AM 63.7 °F 63.7 °F 100% 30.02 in 10.0 mi NE 3.5 mph - N/A   Scattered Clouds
1:55 AM 63.9 °F 64.0 °F 100% 30.04 in 10.0 mi Calm Calm - N/A   Mostly Cloudy
2:15 AM 63.9 °F 63.3 °F 98% 30.04 in 10.0 mi Calm Calm - N/A   Overcast
2:35 AM 64.0 °F 63.0 °F 96% 30.04 in 10.0 mi Calm Calm - N/A   Overcast
2:55 AM 64.4 °F 64.0 °F 99% 30.03 in 10.0 mi Calm Calm - N/A   Mostly Cloudy
3:15 AM 64.0 °F 63.9 °F 99% 30.03 in 10.0 mi Calm Calm - N/A   Mostly Cloudy
3:35 AM 63.9 °F 62.4 °F 95% 30.02 in 10.0 mi Calm Calm - N/A   Mostly Cloudy
3:55 AM 63.9 °F 61.9 °F 93% 30.03 in 10.0 mi Calm Calm - N/A   Overcast
4:15 AM 63.9 °F 61.3 °F 91% 30.03 in 10.0 mi Calm Calm - N/A   Mostly Cloudy
4:35 AM 63.7 °F 62.6 °F 96% 30.03 in 10.0 mi Calm Calm - N/A   Overcast
4:55 AM 63.7 °F 62.6 °F 96% 30.04 in 10.0 mi Calm Calm - N/A   Overcast
5:15 AM 63.9 °F 61.7 °F 93% 30.04 in 10.0 mi Calm Calm - N/A   Mostly Cloudy
5:35 AM 63.9 °F 61.2 °F 91% 30.04 in 10.0 mi Calm Calm - N/A   Mostly Cloudy
5:55 AM 63.5 °F 61.3 °F 93% 30.04 in 10.0 mi Calm Calm - N/A   Mostly Cloudy
6:15 AM 63.5 °F 60.8 °F 91% 30.04 in 10.0 mi Calm Calm - N/A   Scattered Clouds
6:35 AM 63.7 °F 61.0 °F 91% 30.05 in 10.0 mi Calm Calm - N/A   Clear
6:55 AM 63.5 °F 62.1 °F 95% 30.05 in 10.0 mi NE 3.5 mph - N/A   Scattered Clouds
7:15 AM 63.5 °F 62.4 °F 96% 30.04 in 10.0 mi Calm Calm - N/A   Clear
7:35 AM 63.5 °F 63.3 °F 99% 30.04 in 10.0 mi SSW 3.5 mph - N/A   Scattered Clouds
7:55 AM 63.5 °F 63.5 °F 100% 30.04 in 10.0 mi NE 3.5 mph - N/A   Mostly Cloudy
8:15 AM 63.5 °F 63.5 °F 100% 30.04 in 10.0 mi Calm Calm - N/A   Mostly Cloudy
8:35 AM 63.5 °F 63.5 °F 100% 30.03 in 10.0 mi SSW 5.8 mph - 0.01 in   Scattered Clouds
8:55 AM 63.5 °F 63.7 °F 100% 30.06 in 10.0 mi Calm Calm - 0.01 in   Clear
9:15 AM 64.2 °F 64.0 °F 99% 30.05 in 10.0 mi Calm Calm - N/A   Clear
9:35 AM 64.6 °F 64.0 °F 98% 30.03 in 10.0 mi ENE 5.8 mph - N/A   Clear
9:55 AM 63.7 °F 63.9 °F 100% 30.03 in 10.0 mi SE 3.5 mph - N/A   Clear
10:15 AM 64.8 °F 64.2 °F 98% 30.05 in 10.0 mi Calm Calm - N/A   Clear
10:35 AM 65.8 °F 64.0 °F 94% 30.06 in 10.0 mi Calm Calm - N/A   Clear
10:55 AM 65.8 °F 64.8 °F 96% 30.07 in 10.0 mi Calm Calm - N/A   Scattered Clouds
11:15 AM 65.8 °F 65.8 °F 100% 30.07 in 10.0 mi Calm Calm - 0.01 in   Mostly Cloudy
11:35 AM 65.7 °F 65.1 °F 98% 30.07 in 10.0 mi Calm Calm - 0.01 in   Scattered Clouds
11:55 AM 65.8 °F 63.3 °F 92% 30.07 in 10.0 mi Calm Calm - 0.01 in   Clear
12:15 PM 66.9 °F 63.7 °F 89% 30.06 in 10.0 mi Calm Calm - N/A   Clear
12:35 PM 68.4 °F 61.9 °F 80% 30.06 in 10.0 mi Calm Calm - N/A   Clear
12:55 PM 68.4 °F 58.1 °F 70% 30.07 in 10.0 mi SW 3.5 mph - N/A   Clear
1:15 PM 68.5 °F 61.3 °F 78% 30.07 in 10.0 mi Calm Calm - N/A   Clear
1:35 PM 68.5 °F 61.3 °F 78% 30.07 in 10.0 mi Calm Calm - N/A   Clear
1:55 PM 68.4 °F 60.4 °F 76% 30.06 in 10.0 mi Calm Calm - N/A   Clear
2:15 PM 68.5 °F 61.0 °F 77% 30.06 in 10.0 mi Calm Calm - N/A   Clear
2:35 PM 70.0 °F 61.9 °F 75% 30.06 in 10.0 mi Calm Calm - N/A   Clear
2:55 PM 70.9 °F 63.0 °F 76% 30.07 in 10.0 mi West 4.6 mph - N/A   Scattered Clouds
3:15 PM 70.9 °F 62.8 °F 75% 30.07 in 10.0 mi Calm Calm - N/A   Scattered Clouds
3:35 PM 70.9 °F 61.0 °F 71% 30.07 in 10.0 mi Calm Calm - N/A   Scattered Clouds
3:55 PM 70.9 °F 60.4 °F 69% 30.07 in 10.0 mi Calm Calm - N/A   Mostly Cloudy
4:15 PM 70.3 °F 62.8 °F 77% 30.07 in 10.0 mi Calm Calm - N/A   Mostly Cloudy
4:35 PM 69.1 °F 64.8 °F 86% 30.07 in 10.0 mi Calm Calm - 0.01 in   Scattered Clouds
4:55 PM 69.8 °F 64.6 °F 83% 30.05 in 10.0 mi East 4.6 mph - 0.01 in   Clear
5:15 PM 70.7 °F 66.6 °F 87% 30.06 in 10.0 mi Calm Calm - N/A   Scattered Clouds
5:35 PM 68.9 °F 65.8 °F 90% 30.05 in 10.0 mi ENE 4.6 mph - N/A   Clear
5:55 PM 69.8 °F 64.9 °F 84% 30.04 in 10.0 mi SE 3.5 mph - N/A   Clear
6:15 PM 70.9 °F 66.0 °F 85% 30.02 in 10.0 mi East 4.6 mph - N/A   Clear
6:35 PM 70.9 °F 65.8 °F 84% 30.03 in 10.0 mi SSE 3.5 mph - N/A   Clear
6:55 PM 70.7 °F 66.9 °F 88% 30.03 in 10.0 mi Calm Calm - N/A   Clear
7:15 PM 70.9 °F 66.6 °F 86% 30.04 in 10.0 mi Calm Calm - N/A   Clear
7:35 PM 70.3 °F 66.7 °F 88% 30.03 in 10.0 mi ESE 4.6 mph - N/A   Clear
7:55 PM 68.7 °F 67.5 °F 96% 30.04 in 10.0 mi Calm Calm - N/A   Scattered Clouds
8:15 PM 68.4 °F 67.3 °F 96% 30.04 in 10.0 mi East 3.5 mph - N/A   Scattered Clouds
8:35 PM 68.4 °F 68.2 °F 99% 30.03 in 10.0 mi East 3.5 mph - N/A   Scattered Clouds
8:55 PM 68.4 °F 68.5 °F 100% 30.03 in 10.0 mi East 3.5 mph - N/A   Clear
9:15 PM 68.4 °F 68.4 °F 100% 30.02 in 10.0 mi ESE 6.9 mph - N/A   Clear
9:35 PM 68.4 °F 68.2 °F 99% 30.04 in 10.0 mi Calm Calm - N/A   Clear
9:55 PM 68.2 °F 68.2 °F 100% 30.04 in 10.0 mi East 3.5 mph - N/A   Clear
10:15 PM 67.5 °F 67.8 °F 100% 30.07 in 10.0 mi Calm Calm - N/A   Clear
10:35 PM 66.0 °F 66.4 °F 100% 30.06 in 10.0 mi NE 4.6 mph - N/A   Clear
10:55 PM 66.2 °F - N/A% 30.07 in 10.0 mi Calm Calm - N/A   Clear
11:15 PM 67.6 °F 67.8 °F 100% 30.06 in 10.0 mi Calm Calm - N/A   Clear
11:35 PM 65.8 °F 66.2 °F 100% 30.06 in 10.0 mi SE 4.6 mph - N/A   Clear
11:55 PM 66.2 °F 66.6 °F 100% 30.05 in 10.0 mi SE 3.5 mph - N/A   Clear